Regional Weather Roundup
Issued by NWS

Home | Current Version | Previous Version | Graphics & Text | Print | Product List | Glossary On
Versions: 1 2 3 4 5 6 7 8 9 10 11 12 13 14 15 16 17 18 19 20 21 22 23 24 25 26 27 28 29 30 31 32 33 34 35 36 37 38 39 40 41 42 43 44 45 46 47 48 49 50
000
ASUS44 KMEG 020000
RWRTN
TENNESSEE HOURLY STATE WEATHER ROUNDUP
NATIONAL WEATHER SERVICE MEMPHIS TN
700 PM CDT WED APR 01 2015

TNZ002-004-019-021-049-052-054-088>092-020100-
WEST TENNESSEE

CITY           SKY/WX    TMP DP  RH WIND       PRES   REMARKS
MEMPHIS INTL   MOCLDY    75  61  61 S9        29.94S
NWS MEMPHIS      N/A     69 N/A N/A MISG        N/A
JACKSON        LGT RAIN  67  59  75 W16G29    30.02R
DYERSBURG      CLOUDY    72  50  46 S7        29.96R
PARIS          PTCLDY    72  39  30 S6        29.98R
LEXINGTON      CLEAR     73  50  43 S5        29.99R
SAVANNAH       CLEAR     72  55  56 CALM      30.00R
$$

TNZ008-025-027-028-033-062-065-066-020100-
NORTH MIDDLE TENNESSEE

CITY           SKY/WX    TMP DP  RH WIND       PRES   REMARKS
NASHVILLE      MOCLDY    70  30  22 E6        30.02S
CLARKSVILLE    PTCLDY    66  39  37 E8        29.99S
CROSSVILLE     PTCLDY    65  24  21 SE5       30.08R
$$

TNZ061-075-076-078-094-096-097-020100-
SOUTH MIDDLE TENNESSEE

CITY           SKY/WX    TMP DP  RH WIND       PRES   REMARKS
FAYETTEVILLE   CLEAR     72  39  30 CALM      30.03S
TULLAHOMA      CLEAR     72  30  21 CALM      30.05R
WINCHESTER     CLEAR     70  43  37 CALM      30.04R
COLUMBIA       CLEAR     72  45  37 SE3       30.00R
SHELBYVILLE    CLEAR     72  39  30 CALM      30.04S
$$

TNZ017-018-042-046-047-020100-
NORTHEAST TENNESSEE

CITY           SKY/WX    TMP DP  RH WIND       PRES   REMARKS
TRI CITIES     PTCLDY    62  21  20 CALM      30.10R
ELIZABETHTON   CLEAR     54  30  40 CALM      30.10R
$$

TNZ012-013-036-069-073-074-020100-
CENTRAL EAST TENNESSEE

CITY           SKY/WX    TMP DP  RH WIND       PRES   REMARKS
KNOXVILLE      MOCLDY    66  25  21 NE6       30.06R
OAK RIDGE      CLEAR     70  25  18 CALM      30.08R
$$

TNZ083-085-099-020100-
SOUTHEAST TENNESSEE

CITY           SKY/WX    TMP DP  RH WIND       PRES   REMARKS
CHATTANOOGA    MOCLDY    74  32  21 NE6       30.04R
$$

SKY/WX REPORTED AS FAIR MEANS FEW OR NO CLOUDS BELOW
12 THOUSAND FEET.



USA.gov is the U.S. government's official web portal to all federal, state and local government web resources and services.